Overview Statistics Trail Chart Weather Telemetry Raw packets
 

This is the latest recevied weather packets stored in our database for station/object VK4TW-13. If no packets are shown the sender has not sent any weather packets the latest 10 day(s).

<< 41 42 43 44 45 46 47 >>
Time Temp. Humidity Pressure Rain* Wind** Luminosity Snow
1788137379 26.11° C 100% 1026.6 hPa 0 mm - - -
1788137195 25.56° C 100% 1026.6 hPa 0 mm - - -
1788136861 25.56° C 100% 1026.8 hPa 0 mm - - -
1788136245 24.44° C 100% 1026.9 hPa 0 mm - - -
1788135644 23.89° C 100% 1027 hPa 0 mm - - -
1788135043 23.89° C 100% 1027.1 hPa 0 mm - - -
1788134442 23.89° C 100% 1027.1 hPa 0 mm - - -
1788134259 23.89° C 100% 1027.2 hPa 0 mm - - -
1788133993 23.89° C 100% 1027.2 hPa 0 mm - - -
1788133392 23.33° C 100% 1027.2 hPa 0 mm - - -
1788133194 23.89° C 100% 1027.2 hPa 0 mm - - -
1788132996 23.33° C 100% 1027.3 hPa 0 mm - - -
1788132812 23.33° C 100% 1027.3 hPa 0 mm - - -
1788132465 23.33° C 100% 1027.3 hPa 0 mm - - -
1788132181 23.33° C 100% 1027.3 hPa 0 mm - - -
1788131996 23.33° C 100% 1027.3 hPa 0 mm - - -
1788131710 23.33° C 100% 1027.3 hPa 0 mm - - -
1788131530 22.78° C 100% 1027.4 hPa 0 mm - - -
1788131214 22.78° C 100% 1027.4 hPa 0 mm - - -
1788130620 22.22° C 100% 1027.4 hPa 0 mm - - -
1788130270 22.22° C 100% 1027.3 hPa 0 mm - - -
1788129670 22.22° C 100% 1027.4 hPa 0 mm - - -
1788129389 22.22° C 100% 1027.3 hPa 0 mm - - -
1788128898 21.67° C 100% 1027.2 hPa 0 mm - - -
1788128296 21.67° C 100% 1027.2 hPa 0 mm - - -

* Rain since midnight (hover to see other rain measurements)
** Current wind speed in m/s (hover to see current wind gust speed)